Вернуться в каталог

DELTA 1 DEB

АктивенLEO
NORAD 7186·DEBRIS·🇺🇸 United States

Запущен Nov 6, 1973 с Vandenberg Space Force Base

Loading…

Ближайшие Пролёты (ближайшие 24 часа)

TLE

СвежийSource: Space-Track

Эпоха: Sep 14, 2026, 10:49 UTC

1 07186U 73086EX  26257.45119056 -.00000128  00000-0 -21767-3 0  9998
2 07186 101.8041  71.1378 0224333  21.4389   7.0072 13.01787714490019

Отслеживайте DELTA 1 DEB в реальном времени с AllMySat

Download on the App Store